Location: Freistadt
(48.5112°N, 14.5013°E)
Time: 17:04:56
(UTC+02:00)

CUBEBUG 2 - Pass Details

Date: 07 April 2023
Orbit: 577 x 685 km, 97.8° (Epoch: 02 June)

Event Time Altitude Azimuth Distance (km) Brightness Sun altitude
Rises 02:35:37 0° 25° (NNE) 3,052 ? -31.3°
Reaches altitude 10° 02:38:22 10° 41° (NE) 2,118 ? -31.1°
Enters shadow 02:41:49 21° 89° (E) 1,471 ? -30.8°
